High Desert Yearling Classic - Loft Fly

Station: INVENTORY - T Race

Distance: 10 Miles

Release: 21-Nov-2021 12:20

Weather Release:    Arrival:

Wind at Release:     Wind at Arrival:

Temp at Release: °    Temp at Arrival: °

Lofts: 98

Birds: 458

Clocked: 452

Good Luck to Everyone!
Drops Pos Breeder Pigeon Name Color Sex Ent Arrival Speed To Win Elg Pd
1 Thunder Birds Breeding Loft - TX 81273-AU21-ARPU Harry's Magic BB H 1 13:15:57.09 314.558 00:00:00 Yes
2 Mario Rodriguez - AZ 72611-AU21-ARPU GRIZ H 1 13:15:58.11 314.463 00:00:01 Yes
3 Transilvania Loft - NV 45646-AU21-JEDD BB H 1 13:15:58.61 314.416 00:00:02 Yes
4 Luna-Grajiola - CA 0023-AU21-SEL BB H 1 13:16:01.74 314.123 00:00:05 Yes
5 Transilvania Loft - NV 45659-AU21-JEDD BB H 2 13:16:03.07 313.999 00:00:06 Yes
6 2nd Chance Loft - ID 21425-AU21-RMR BB H 1 13:16:09.72 313.379 00:00:13 Yes
7 Emmalyn & Carelyn Loft - CA 5436-AU21-ARPU ~ CEYX 5436 ~ BC H 1 13:16:12.84 313.089 00:00:16 Yes
8 Wfa - UT 1000-AU21-WFA BC H 1 13:16:14.73 312.914 00:00:18 Yes
9 Josjim Loft - CA 21061-AU21-NEL BB H 1 13:16:16.80 312.722 00:00:20 Yes
10 Codd / Applis Syndicate - MO 17530-AU21-AA BB H 1 13:16:16.91 312.712 00:00:20 Yes
11 Thunder Birds Breeding Loft - TX 18487-AU21-JEDD Allison Felix BC H 2 13:16:25.03 311.962 00:00:28 Yes
12 Dirty Dozen Loft - UT 0616-AU21-WFA BB H 1 13:16:27.85 311.702 00:00:31 Yes
13 Spring Break Race - UT 34474-AU21-AA BB H 1 13:16:29.28 311.571 00:00:32 Yes
14 Gina's Loft - ID 21449-AU21-RMR BB H 1 13:17:10.66 307.812 00:01:14 Yes
15 Hollywood Lou Loft - FL 0689-AU21-HLOU BB H 1 13:17:38.53 305.332 00:01:41 Yes
16 Xfactord - OK 6518-AU21-ARPU FedX BB H 1 13:19:53.83 293.837 00:03:57 Yes
17 Pelican Loft - ID 2166-AU21-PELI BB H 1 13:20:07.68 292.709 00:04:11 Yes
18 Thunder Birds Breeding Loft - TX 81284-AU21-ARPU It's A Kind Of Magic BC H 3 13:20:08.58 292.636 00:04:11 Yes
19 Spring Break Race - UT 34468-AU21-AA BB H 2 13:20:09.62 292.552 00:04:13 Yes
20 Utley Lofts - ID 0868-AU21-IDA DCSP H 1 13:20:15.46 292.079 00:04:18 Yes
21 Nick & Sons - WA 39541-AU21-JEDD BB H 1 13:20:16.53 291.993 00:04:19 Yes
22 Wfa - UT 0413-AU21-WFA BC H 2 13:20:17.62 291.905 00:04:21 Yes
23 Kehl/Boyle - UT 0652-AU21-WGS SLT H 1 13:20:22.73 291.493 00:04:26 Yes
24 Emmalyn & Carelyn Loft - CA 5407-AU21-ARPU ~ CEYX 5407 ~ BC H 2 13:20:30.35 290.881 00:04:33 Yes
25 2nd Chance Loft - ID 21424-AU21-RMR BB H 2 13:20:36.49 290.390 00:04:39 Yes
26 Warbird Loft - KS 89660-AU21-ARPU BB H 1 13:20:39.84 290.123 00:04:43 Yes
27 Old Hickory Terrace Loft - PA 70483-AU21-ARPU BB H 1 13:20:41.58 289.984 00:04:44 Yes
28 Dean Farmer Loft - IL 2368-AU21-VK BB C 1 13:20:53.59 289.031 00:04:56 Yes
29 Keyways - ID 0162-AU21-KEYW 86 x 4114 BB H 1 13:20:56.15 288.828 00:04:59 Yes
30 Rodriguez Loft - TX 19477-AU21-ARPU MYSTIQUE-CROOKED BB H 1 13:21:01.03 288.443 00:05:04 Yes
31 Cloux Loft - CO 35081-AU21-AA BB H 1 13:21:07.96 287.898 00:05:11 Yes
32 Abilene Loft - OH 1171-AU21-MVS BC H 1 13:21:08.42 287.862 00:05:11 Yes
33 Abilene Loft - OH 1170-AU21-MVS BBWF H 2 13:21:09.09 287.810 00:05:12 Yes
34 Callahan Loft - MO 13937-AU21-AA BB H 1 13:21:14.57 287.381 00:05:17 Yes
35 Dean Farmer Loft - IL 2367-AU21-VK BCPI H 2 13:21:28.84 286.269 00:05:32 Yes
36 G.S.P Loft - CA 5634-AU21-JEDD BB H 1 13:21:45.26 285.000 00:05:48 Yes
37 Double J Loft - UT 2515-AU21-NPA BBWF H 1 13:21:47.66 284.816 00:05:51 Yes
38 PNWC - ID 0074-IF21-PNWC “PAIR #1C BBSP H 1 13:21:50.69 284.583 00:05:54 Yes
39 Cloux Loft - CO 21926-AU21-FH BC H 2 13:21:53.08 284.400 00:05:56 Yes
40 Roan Loft - CA 2883-AU21-GHC BB H 1 13:21:58.24 284.005 00:06:01 Yes
41 Silver Dollar Loft - CO 0077-AU21-SDL RC H 1 13:22:03.66 283.592 00:06:07 Yes
42 Mario Rodriguez - AZ 72618-AU21-ARPU BCSP H 2 13:22:04.03 283.564 00:06:07 Yes
43 Transilvania Loft - NV 45645-AU21-JEDD DC H 3 13:22:06.53 283.374 00:06:09 Yes
44 Silver Dollar Loft - CO 0076-AU21-SDL RC H 2 13:22:09.10 283.178 00:06:12 Yes
45 Gary Gross - NE 2098-AU21-CIRP BB H 1 13:22:11.27 283.014 00:06:14 Yes
46 New Year Loft - PA 7012-AU21-VITA Chod'z BC H 1 13:22:12.70 282.905 00:06:16 Yes
47 Kwan Loft - CA 2176-AU21-KWAN BB H 1 13:22:13.21 282.866 00:06:16 Yes
48 Racing Pigeon Mall - WA 0170-AU21-RPM BB H 1 13:22:13.86 282.817 00:06:17 Yes
49 Danny Lum - HI 0833-IF21-FSC BB H 1 13:22:14.30 282.784 00:06:17 Yes
50 San Pancho Loft - UT 0700-AU21-WFA BB H 1 13:22:15.73 282.676 00:06:19 Yes
51 Kehl/Boyle - UT 0662-AU21-WGS BBP H 2 13:22:16.43 282.623 00:06:19 Yes
52 208 Lofts - ID 0397-AU21-208 260x640 BBWF H 1 13:22:16.88 282.589 00:06:20 Yes
53 Baldwin & Tillson - NC 1344-AU21-TENT RRED H 1 13:22:17.84 282.516 00:06:21 Yes
54 Sam Haslem - UT 0254-AU21-SAM BBWF H 1 13:22:19.84 282.365 00:06:23 Yes
55 David Sandeen - PA 2826-IF21-ERIE BBWF H 1 13:22:21.72 282.223 00:06:25 Yes
56 Nick & Sons - WA 39544-AU21-JEDD BC H 2 13:22:23.59 282.082 00:06:27 Yes
57 Codd / Applis Syndicate - MO 7524-AU21-AA BBSM H 2 13:22:23.88 282.060 00:06:27 Yes
58 Carini / Codd - OR 0066-AU21-CODD BBWF H 1 13:22:25.09 281.969 00:06:28 Yes
59 Kehl/Boyle - UT 0657-AU21-WGS BBP H 3 13:22:26.34 281.875 00:06:29 Yes
60 Warbird Loft - KS 89630-AU21-ARPU BB H 2 13:22:27.96 281.753 00:06:31 Yes
61 Racing Pigeon Mall - WA 0184-AU21-RPM BB H 2 13:22:31.44 281.492 00:06:34 Yes
62 Abilene Loft - OH 1167-AU21-MVS BC H 3 13:22:31.68 281.474 00:06:35 Yes
63 Warbird Loft - KS 89602-AU21-ARPU CB H 3 13:22:31.84 281.462 00:06:35 Yes
64 Emmalyn & Carelyn Loft - CA 0787-AU21-CEYX ~ CEYX 787 ~ BC H 3 13:22:33.46 281.340 00:06:36 Yes
65 Hollywood Lou Loft - FL 0314-AU21-CCPF BB H 2 13:22:34.59 281.256 00:06:37 Yes
66 Warbird Loft - KS 89625-AU21-ARPU SLT H 4 13:22:35.21 281.209 00:06:38 Yes
67 Mike Beam - KS 1516-AU21-TOP BB H 1 13:22:37.50 281.038 00:06:40 Yes
68 VicstromLoft - UT 21704-AU21-RMR WICK 04 BC C 1 13:22:37.92 281.007 00:06:41 Yes
69 Gundog Loft - HI 0510-AU21-MKI BB C 1 13:22:43.33 280.603 00:06:46 Yes
70 Mario Rodriguez - AZ 72612-AU21-ARPU SLT H 3 13:22:44.21 280.537 00:06:47 Yes
71 Funny Farm Loft - CA 5405-AU21-ARC 4428/4546 BC H 1 13:22:44.69 280.501 00:06:48 Yes
72 Circle C Lofts - UT 19687-AU21-JEDD BB H 1 13:22:49.29 280.159 00:06:52 Yes
73 Red Dragon Lofts - CA 0030-AU21-FMT DCWF H 1 13:22:50.83 280.044 00:06:54 Yes
74 Pelican Loft - ID 2158-AU21-PELI BB H 2 13:22:50.98 280.033 00:06:54 Yes
75 Kwan Loft - CA 7825-AU21-GHC BB H 2 13:22:53.74 279.828 00:06:57 Yes
76 John Wiford - OH 21933-AU21-FH BC H 1 13:22:57.80 279.528 00:07:01 Yes
77 Lazy A C Loft - IN 1046-AU21-LAZY BSP H 1 13:22:58.42 279.482 00:07:01 Yes
78 Jones Boys - UT 1437-AU21-SLI BC C 1 13:23:02.29 279.196 00:07:05 Yes
79 Baldwin & Tillson - NC 1375-AU21-TENT BC H 2 13:23:02.59 279.174 00:07:05 Yes
80 G.S.P Loft - CA 5615-AU21-JEDD BC H 2 13:23:06.54 278.883 00:07:09 Yes
81 Fox Den - ID 2174-AU21-PELI BB H 1 13:23:16.98 278.116 00:07:20 Yes
82 Venn Family Loft - WY 11547-AU21-ARPU BB H 1 13:23:17.25 278.096 00:07:20 Yes
83 Codd / Applis Syndicate - MO 17540-AU21-AA BBSP H 3 13:23:18.81 277.982 00:07:22 Yes
84 Kwan Loft - CA 2182-AU21-KWAN BB H 3 13:23:22.81 277.689 00:07:26 Yes
85 FAmPFA - IL 3681-AU21-CHIC BC H 1 13:23:24.66 277.554 00:07:28 Yes
86 3 Stars & A Sun - TX 18454-AU21-JEDD RC H 1 13:23:41.24 276.350 00:07:44 Yes
87 Hollywood Lou Loft - FL 0262-AU21-CCPF BBWF H 3 13:23:49.74 275.737 00:07:53 Yes
88 Haack Loft - CA 2898-AU21-GHC BB H 1 13:23:52.62 275.530 00:07:56 Yes
89 Peter Krieg - CA 4205-AU21-CHP BB H 1 13:23:53.03 275.500 00:07:56 Yes
90 Team Chuckee - NV 14569-AU21-JEDD BB H 1 13:24:00.49 274.965 00:08:03 Yes
91 Warbird Loft - KS 89647-AU21-ARPU BB H 5 13:24:01.19 274.915 00:08:04 Yes
92 Spring Break Race - UT 34471-AU21-AA BCWF H 3 13:24:04.88 274.651 00:08:08 Yes
93 Steve Beier - AZ 26372-AU21-JEDD BB H 1 13:24:08.95 274.361 00:08:12 Yes
94 S & S - CA 0184-AU21-SS BB H 1 13:24:17.66 273.741 00:08:21 Yes
95 Carini / Codd - OR 0067-AU21-CODD BB H 2 13:24:20.34 273.551 00:08:23 Yes
96 Arendonk West - CA 20371-AU21-AA BB H 1 13:24:23.55 273.324 00:08:26 Yes
97 New Year Loft - PA 0036-IF21-GPC Abracadabra DC H 2 13:24:23.81 273.305 00:08:27 Yes
98 Baldwin & Tillson - NC 1182-AU21-TENT BB H 3 13:24:29.10 272.932 00:08:32 Yes
99 PNWC - ID 0053-IF21-PNWC “PAIR #17” BB H 2 13:24:29.82 272.881 00:08:33 Yes
100 New Year Loft - PA 0032-IF21-GPC Dark Kawa DC H 3 13:24:33.84 272.598 00:08:37 Yes

There are 452 bird records

Note: These Race Results are unofficial and subject to change until verified by the Race Committee and declared final.